Theta_e
313 315 317 317 316 315 316 316 316 317 317 317 318 318 317 317 317 317 318 318 317 318 317 318 317 316 316 315 314 314 315 314 314 314 315 315 316 316 317 316 314 312 311 310 309 308 309 308 308 308 308 309 309 309 309 309 309 309 310 311 310 309 308 308 308 308 309 309 310 311 313 315 316 318 319 319 320 320 320 319 319 319 319 319 318 318
314 317 318 317 316 316 317 318 317 318 318 317 318 318 318 318 317 317 317 318 317 317 317 316 316 315 315 315 314 314 315 315 315 315 315 316 316 316 316 314 312 311 310 310 309 308 308 308 308 309 309 309 309 309 309 309 308 308 308 310 311 310 308 309 308 308 308 308 309 309 310 312 313 315 316 316 317 317 317 317 317 317 317 317 317 317
317 317 317 316 316 317 317 317 317 318 318 318 318 318 318 318 317 317 317 317 316 316 316 316 315 315 315 315 315 315 315 316 316 316 316 316 314 313 313 311 310 309 309 308 308 307 307 308 308 309 309 309 309 309 310 309 309 309 308 308 309 309 308 309 308 308 308 308 308 309 310 311 312 313 314 313 314 314 313 314 314 314 314 314 314 314
319 318 317 316 317 317 317 317 318 318 318 318 318 318 318 318 318 318 318 317 316 315 315 316 315 315 315 315 316 316 316 316 317 316 315 314 312 311 310 309 308 307 307 307 307 307 307 307 308 309 309 309 309 310 309 309 309 309 308 308 308 307 308 308 307 307 307 307 307 307 307 308 308 310 310 310 310 310 310 310 310 310 310 310 311 311
319 319 317 317 317 318 317 318 318 318 318 319 320 319 318 318 318 318 317 316 315 316 316 316 317 318 317 317 317 317 318 317 316 314 313 312 311 310 309 307 307 306 306 306 306 306 307 307 308 308 309 309 310 310 309 309 309 308 308 308 308 307 307 308 307 307 306 306 306 306 306 306 306 307 307 307 307 307 307 307 307 307 307 307 307 308
317 317 317 317 317 319 319 318 318 319 318 318 320 321 318 317 318 318 318 318 317 317 317 318 320 321 320 319 319 318 318 316 313 312 311 310 309 308 307 306 305 305 305 305 305 306 307 308 308 309 309 310 310 310 310 309 309 309 309 308 308 308 308 308 308 308 308 307 307 306 306 306 306 306 306 307 307 307 307 306 306 306 306 306 306 306
316 316 318 319 318 319 321 319 318 319 318 318 320 320 319 318 319 320 319 319 319 318 316 316 319 319 319 318 318 318 317 313 311 311 310 309 308 307 306 305 304 304 304 304 305 306 307 308 309 310 310 310 310 310 310 310 310 310 310 310 309 309 308 308 308 308 309 308 308 307 306 306 305 305 306 307 307 307 306 306 305 305 305 305 305 305
316 317 318 319 317 319 320 318 318 319 318 319 319 318 318 318 318 318 317 318 318 317 316 316 317 318 318 317 318 318 316 312 311 310 309 308 307 305 305 304 303 303 303 304 304 305 306 307 308 309 309 309 310 310 310 310 310 310 310 310 310 310 309 309 308 309 309 309 309 308 307 306 306 305 305 305 306 306 306 305 305 304 304 305 304 304
315 318 319 319 318 319 318 317 319 319 318 320 318 316 316 315 315 316 316 317 317 316 318 318 318 320 320 319 318 318 315 312 311 310 309 307 306 305 304 303 302 302 302 303 304 305 305 305 306 307 308 309 309 309 309 309 309 310 309 309 310 310 309 309 309 309 309 309 309 309 308 307 306 305 305 305 305 305 305 305 304 304 304 304 304 304
315 315 316 317 319 318 316 317 321 321 318 317 316 316 315 316 317 316 316 316 316 317 318 319 319 320 323 322 320 319 315 313 312 309 308 306 305 304 303 302 301 301 301 302 302 304 305 305 305 305 307 308 308 308 308 309 309 309 308 308 309 309 309 309 308 308 308 309 309 309 308 307 307 306 305 305 304 304 304 304 304 304 303 303 303 303
313 311 311 314 316 316 316 316 317 318 316 314 315 316 316 318 318 317 317 316 317 320 320 319 319 319 324 326 319 317 315 312 311 309 307 306 304 303 302 301 301 302 302 302 302 303 303 304 305 305 306 306 307 307 307 308 308 307 307 307 307 307 307 307 308 308 308 308 308 308 308 308 307 307 306 305 305 304 303 303 303 303 303 302 302 302
314 313 313 314 313 313 316 316 313 313 313 313 314 314 316 320 318 316 317 316 318 323 320 319 320 319 324 325 317 315 315 312 311 309 307 305 304 303 301 300 300 301 303 303 304 304 304 305 305 306 306 306 306 306 306 306 306 306 306 306 306 306 306 306 306 306 307 307 307 307 307 307 307 306 306 306 305 304 304 303 303 303 302 302 302 302
318 317 315 314 313 312 315 316 314 313 312 313 314 313 317 321 321 320 321 320 321 321 317 318 322 322 323 321 317 316 314 312 311 308 306 304 303 302 300 299 299 299 301 303 303 304 304 304 305 305 305 304 304 304 304 304 304 305 304 305 305 305 304 305 305 305 305 305 306 306 306 306 306 305 305 305 305 305 304 304 303 302 302 302 302 301
321 320 316 316 315 313 314 315 317 318 314 313 315 317 319 321 322 323 323 323 324 321 318 319 322 323 323 320 318 314 310 308 308 306 305 303 302 301 300 299 298 298 299 301 302 303 303 303 303 303 303 303 303 302 303 303 303 303 303 303 303 303 303 303 304 304 304 304 304 304 304 304 304 304 304 304 304 304 304 304 303 302 302 301 301 301
321 321 319 320 318 314 314 314 318 321 316 313 316 320 321 321 321 321 322 324 325 325 323 321 322 324 323 318 313 309 306 305 305 304 303 302 301 300 299 298 298 298 299 300 300 301 301 301 301 301 301 301 301 300 301 301 301 302 302 301 301 301 302 302 302 303 303 303 303 303 304 304 303 303 303 303 303 303 303 304 304 304 303 302 301 301
320 321 319 318 315 313 314 315 317 318 317 316 317 320 321 322 321 320 322 323 323 324 323 321 323 323 319 313 308 306 305 304 303 303 302 301 300 299 298 298 297 297 297 298 298 298 298 299 299 299 299 299 299 299 299 299 299 299 300 300 300 300 300 300 301 301 302 302 303 303 303 303 303 302 302 301 301 301 302 302 303 303 303 303 302 302
318 320 320 316 314 313 313 314 316 317 317 317 317 320 320 320 321 321 322 322 322 322 320 320 322 320 316 314 308 306 306 304 303 302 301 300 300 298 298 297 296 296 296 297 298 298 298 298 298 298 297 297 297 297 297 296 296 296 297 297 297 298 298 298 299 299 299 300 300 301 301 301 301 301 301 301 300 300 300 300 300 301 302 302 302 302
319 319 319 318 318 315 311 312 315 314 315 317 319 319 317 318 320 319 320 321 322 321 319 318 320 317 317 316 309 306 306 304 303 302 300 300 298 297 297 296 296 297 298 299 299 298 298 298 297 296 296 295 295 295 295 294 293 293 293 293 294 294 295 295 295 296 296 297 297 297 298 298 299 299 299 299 299 299 299 299 299 299 299 300 300 301
320 320 320 320 322 317 311 313 316 314 313 315 316 315 316 319 321 319 318 319 320 319 318 318 318 317 317 316 311 308 306 304 302 301 300 299 298 297 296 297 298 298 299 298 298 297 297 296 296 295 295 294 294 293 293 292 292 291 291 291 291 291 291 291 292 292 293 294 294 294 294 295 295 296 296 297 297 298 298 298 298 298 298 298 298 299
319 320 321 322 322 318 313 316 319 317 314 312 312 314 316 317 318 318 318 319 319 318 318 318 317 317 316 313 311 309 306 303 302 301 300 298 298 297 297 298 298 298 297 297 296 296 295 294 294 294 294 293 293 292 292 291 291 290 290 290 290 290 290 290 290 290 290 290 291 291 291 292 292 292 293 293 294 295 295 296 297 297 297 297 297 297
318 318 319 319 319 318 316 318 319 318 317 315 314 314 315 316 319 319 318 318 318 317 318 317 317 318 314 308 307 307 305 304 302 301 300 298 297 297 297 298 298 297 297 296 295 294 294 294 293 293 292 292 292 291 290 290 289 289 289 289 289 290 290 290 290 289 289 289 289 289 290 290 290 290 290 291 291 291 292 292 293 294 294 295 295 295
316 317 317 317 317 317 317 318 318 318 318 317 316 316 316 317 318 318 317 317 317 317 317 316 317 318 312 305 305 304 303 303 301 300 299 297 297 297 297 298 297 297 296 295 294 294 293 293 292 291 291 290 290 289 289 289 289 288 289 289 289 289 289 289 289 289 289 289 289 289 289 289 289 289 289 289 289 289 290 290 290 291 291 292 292 293
311 313 315 316 315 315 314 315 316 317 317 317 317 317 318 317 316 316 317 317 317 317 317 316 317 317 309 304 304 303 302 301 300 299 299 298 298 298 297 297 296 295 295 294 294 293 293 292 292 291 289 289 289 289 289 289 289 289 289 289 289 289 289 289 289 289 289 289 289 289 289 289 288 288 288 288 288 288 288 288 288 288 289 289 290 290
311 313 315 315 314 314 314 314 315 315 316 317 316 315 316 316 315 315 314 314 314 315 316 316 317 316 308 303 303 303 302 302 301 300 300 298 298 297 297 296 295 294 293 293 293 293 292 292 291 290 289 289 289 289 289 289 289 289 289 289 289 289 289 289 289 289 289 289 289 288 288 288 288 288 288 288 288 288 288 288 288 288 287 288 288 288
312 313 313 313 314 314 314 314 315 315 315 314 313 312 312 313 314 313 312 313 313 313 314 314 315 316 309 303 302 303 302 302 301 301 300 299 299 298 297 296 295 294 293 293 292 292 291 291 290 289 289 289 289 289 289 289 289 289 289 289 289 289 289 289 289 289 289 289 289 288 288 288 288 288 288 288 288 288 288 288 288 287 287 287 287 287
312 312 312 312 313 313 313 313 315 315 313 312 312 312 312 312 313 313 312 313 313 313 312 310 311 313 309 304 304 304 303 303 302 300 300 300 299 298 297 295 295 294 292 292 291 291 290 290 290 289 289 289 289 289 289 289 289 289 289 289 290 290 290 289 289 289 289 289 289 289 288 288 288 288 288 288 288 288 288 288 288 288 288 287 287 287
311 312 312 312 311 311 311 311 312 312 311 310 311 311 311 311 311 311 311 311 311 310 309 309 309 310 309 307 306 306 306 306 304 300 299 299 298 297 296 296 295 294 292 291 291 291 290 290 290 290 289 289 289 289 290 290 290 290 290 290 290 290 290 290 290 290 289 289 289 289 289 289 288 288 288 288 288 288 288 288 288 288 288 288 287 287
310 310 311 311 311 310 310 310 310 310 309 309 309 309 310 310 310 310 310 309 309 309 308 308 307 307 307 306 306 305 306 307 305 301 299 298 297 297 296 295 294 294 293 293 292 291 291 291 290 290 290 290 290 290 290 290 290 290 290 290 290 290 290 290 290 290 290 290 290 289 289 289 289 289 289 289 289 288 288 288 288 288 288 288 288 288
308 308 308 308 308 308 308 308 308 308 307 307 307 307 307 308 308 308 307 307 308 308 307 307 306 306 305 305 305 304 303 303 302 301 299 297 296 296 295 294 294 294 294 294 293 293 292 292 291 291 291 291 290 290 290 290 290 290 290 290 290 289 289 289 290 290 290 290 289 289 289 289 289 289 289 289 289 289 289 289 289 288 288 288 288 288
306 306 306 306 306 306 306 306 307 307 306 306 305 305 305 305 306 306 305 306 307 306 306 306 305 305 304 304 303 301 299 299 298 297 297 296 295 295 294 294 294 294 294 293 293 294 293 293 292 292 291 291 291 291 291 290 290 290 290 290 290 290 289 289 289 289 289 289 289 289 289 289 289 289 289 289 289 289 288 288 288 288 288 288 288 288
305 306 306 305 305 305 304 305 305 306 306 305 305 305 305 304 305 304 304 304 305 304 304 304 303 303 302 299 299 298 297 297 296 295 295 295 294 294 293 293 293 293 293 293 292 293 293 293 293 292 292 291 291 291 291 291 291 290 290 290 290 290 290 289 289 289 288 288 288 289 289 289 289 289 289 289 289 288 288 288 288 288 288 287 287 287
304 305 305 305 304 303 302 303 303 303 304 304 303 303 303 303 303 303 302 303 303 302 303 302 302 303 301 296 296 296 295 294 294 294 294 293 293 293 292 292 292 292 292 292 292 292 292 292 292 291 291 291 291 291 291 291 291 291 291 291 290 290 290 290 289 289 289 288 288 288 288 288 288 289 289 289 288 288 288 288 287 287 287 286 286 286
304 304 303 303 303 302 302 302 301 301 302 301 301 301 301 301 301 301 301 302 302 301 302 302 301 302 300 297 296 295 293 293 293 293 292 292 292 292 292 292 292 292 292 291 291 291 291 291 291 290 290 290 290 290 290 290 290 290 290 290 289 289 289 289 289 288 288 287 287 286 286 286 286 287 287 287 287 287 287 286 286 286 285 285 285 285
302 302 302 302 301 300 301 300 300 300 300 300 301 301 301 301 301 301 301 301 301 300 301 302 302 300 298 296 296 294 293 292 292 292 292 292 292 292 292 292 292 292 291 291 291 290 290 290 290 290 290 289 289 289 289 289 289 289 288 288 288 288 288 287 287 287 286 286 285 285 285 285 284 285 285 285 285 284 284 284 284 284 283 283 283 283
301 301 301 301 301 300 300 300 299 299 299 300 301 301 300 300 300 300 300 299 299 299 299 300 301 298 295 294 293 293 292 292 292 292 292 292 292 292 292 292 292 291 291 290 290 290 290 290 289 289 289 288 288 288 288 288 288 288 287 287 287 286 286 286 286 285 285 284 284 283 283 283 282 282 282 282 282 282 282 282 282 282 282 282 282 282
300 300 299 300 300 299 299 299 298 298 297 298 299 299 298 299 299 298 298 297 298 298 298 299 299 296 293 292 292 291 291 291 291 292 292 292 292 292 292 292 291 291 290 290 290 289 289 289 289 289 288 288 287 287 287 287 287 287 287 286 286 286 285 285 285 284 284 283 283 282 282 281 281 281 281 280 280 280 280 280 280 280 280 280 280 280
299 299 299 298 298 298 298 298 298 297 297 297 297 297 297 297 297 297 297 298 298 297 296 298 298 294 292 291 291 291 291 291 291 292 292 292 292 292 291 291 291 290 290 290 289 289 289 289 288 288 288 287 287 287 287 287 287 287 286 286 285 284 284 284 283 283 283 282 282 281 281 280 280 279 279 279 279 279 279 279 279 279 279 278 278 279
297 298 298 297 298 298 297 297 297 296 296 297 297 296 296 295 295 296 297 299 298 296 295 297 296 292 291 291 291 291 291 291 292 292 292 291 291 291 291 290 290 290 290 289 289 289 289 288 288 287 287 287 287 287 287 286 286 285 285 284 284 283 283 283 283 282 282 281 281 280 280 279 278 278 278 278 277 277 277 277 277 277 277 277 277 277
295 296 297 297 297 298 297 297 296 296 296 297 296 295 295 294 294 295 297 297 295 293 293 294 292 290 290 291 291 291 291 292 292 292 291 291 291 290 290 290 290 290 290 289 289 289 288 288 287 287 287 287 287 287 286 285 284 284 283 283 283 283 282 282 282 281 281 280 280 279 278 278 277 277 276 276 276 276 276 276 276 276 276 276 276 276
294 295 296 296 297 297 297 296 296 295 296 295 294 294 294 294 295 295 295 295 293 291 292 292 290 290 291 290 290 291 292 292 292 291 291 291 290 290 290 290 290 289 289 289 289 288 288 288 287 287 287 287 286 285 284 283 283 283 283 282 282 282 281 281 280 280 279 279 279 278 277 277 276 276 276 276 276 276 275 275 275 275 275 274 274 274
293 294 295 295 295 296 296 296 296 295 296 295 294 294 294 294 295 294 294 294 293 291 292 292 291 291 291 290 290 291 292 291 291 290 290 290 290 290 290 289 289 289 289 288 288 288 288 287 287 287 286 286 285 284 283 283 282 282 282 282 281 280 280 280 279 279 279 278 278 277 277 277 276 276 276 275 275 275 275 274 273 272 272 272 271 271
294 294 295 295 294 294 295 295 295 295 295 295 294 294 294 294 295 294 294 293 293 292 292 292 292 291 291 291 291 291 290 290 290 290 290 290 289 289 289 289 289 289 288 288 288 288 287 287 287 286 286 285 283 282 282 282 282 282 281 280 280 279 279 278 278 278 278 278 277 277 277 277 276 275 275 274 273 273 273 272 271 270 270 269 269 269
295 294 294 294 294 294 294 294 294 294 294 294 294 294 295 295 295 294 293 292 292 293 292 292 292 292 291 291 291 290 290 290 290 290 289 289 289 289 289 289 288 288 287 287 287 287 287 287 286 286 284 283 282 282 282 282 281 281 280 279 279 278 278 278 278 277 277 277 277 277 276 276 275 275 274 273 271 271 270 270 269 268 268 267 267 267
295 295 294 294 295 295 294 294 295 295 293 293 294 295 295 295 294 293 293 292 292 292 292 292 292 292 291 291 291 290 290 290 289 289 289 288 288 288 288 288 288 287 286 286 286 286 286 286 285 284 283 282 282 282 281 281 280 280 279 278 278 278 278 277 277 277 277 277 276 276 276 275 274 273 272 271 270 269 269 268 267 267 266 266 265 265
294 294 293 293 294 294 294 294 295 294 293 293 294 294 293 293 293 293 292 293 292 292 292 292 292 291 291 290 290 290 290 289 289 289 288 288 288 288 287 287 286 286 286 285 286 286 285 285 284 283 282 282 281 281 280 280 279 279 278 277 277 277 277 277 277 277 276 276 276 276 275 274 273 272 271 270 269 268 268 267 266 266 265 265 264 264
293 293 293 293 293 293 293 293 293 292 292 292 292 292 293 293 292 292 292 292 292 292 292 292 291 291 290 290 289 289 289 289 289 288 288 288 287 287 286 286 285 285 285 285 285 285 284 283 282 282 282 282 281 280 279 278 278 277 277 277 276 276 276 277 276 276 276 275 275 275 274 273 272 271 270 269 268 267 266 266 265 264 264 264 264 264
292 292 292 292 292 292 292 292 293 292 292 292 292 292 292 292 292 292 292 292 292 292 292 291 291 291 290 290 289 289 289 288 288 288 288 287 286 286 285 285 285 284 284 284 284 283 282 282 281 281 281 281 280 279 278 278 277 277 276 276 276 276 276 276 275 275 275 275 275 274 272 271 270 270 269 268 267 266 265 265 264 263 263 263 263 263
293 293 292 292 292 292 292 292 292 292 292 292 292 291 291 292 292 292 292 292 292 291 291 291 291 290 290 289 289 289 288 288 287 287 287 286 286 285 285 285 284 284 284 284 283 282 281 281 281 281 280 280 279 278 277 277 276 276 275 275 275 275 275 275 275 275 275 274 273 272 271 269 268 268 268 267 266 265 265 265 264 264 263 263 263 263
293 293 293 293 292 292 292 292 292 292 292 292 292 291 291 291 291 291 291 291 291 291 291 291 290 290 289 289 289 288 288 287 287 286 286 286 285 285 284 284 284 284 284 283 282 281 280 280 280 280 279 278 278 277 277 276 276 275 275 275 275 274 274 275 275 274 274 274 272 271 269 268 267 268 267 267 266 266 265 265 264 263 263 263 263 263
292 292 292 292 292 292 292 292 292 292 291 291 291 292 292 292 292 291 291 291 291 291 291 290 290 289 289 288 288 288 287 287 286 286 285 285 285 284 284 284 284 283 282 281 280 280 280 279 279 278 278 277 277 276 276 276 275 275 274 274 274 274 274 274 274 274 274 272 271 269 268 267 268 268 267 267 266 265 264 265 265 264 263 263 263 264
292 292 292 292 292 292 292 292 292 292 291 291 291 292 292 292 291 291 291 291 291 291 291 290 290 289 288 288 288 287 286 286 285 285 285 284 284 284 283 283 283 282 281 280 280 279 279 279 278 277 277 276 276 276 276 275 275 274 274 274 274 273 274 274 273 273 273 271 269 268 268 268 268 268 267 267 265 263 263 263 265 266 266 264 264 264
Wind_Speed
11 4 3 5 5 8 9 10 11 11 10 11 9 8 9 8 8 8 9 9 8 8 7 6 8 8 8 8 14 24 26 23 23 20 22 26 16 9 16 22 24 25 23 18 16 16 14 14 14 13 11 9 8 7 6 5 4 4 2 2 4 4 2 2 4 4 4 6 9 12 15 18 20 22 24 25 26 27 27 28 29 31 32 33 33 33
7 3 4 7 9 11 11 10 11 11 9 9 8 8 8 7 8 8 11 11 6 4 4 5 8 8 9 12 17 23 18 14 17 17 17 10 10 18 20 24 24 23 20 17 18 19 18 19 19 19 19 18 17 16 14 11 9 6 5 4 3 5 4 2 2 3 2 2 3 5 7 10 13 17 19 21 23 24 25 27 28 30 31 32 32 32
3 5 9 12 11 11 11 10 10 11 9 7 7 7 6 5 7 8 10 9 2 1 3 6 8 7 11 15 17 18 12 14 21 11 4 15 23 24 24 25 23 23 21 20 21 21 22 22 23 24 24 24 24 23 22 20 17 13 10 8 5 5 4 3 1 1 2 2 3 3 5 7 8 10 13 15 17 19 20 22 24 26 28 29 30 30
4 5 8 13 12 10 10 10 9 9 6 5 5 5 6 5 6 6 4 5 4 3 6 9 8 7 11 14 13 15 14 12 5 14 26 27 27 27 27 25 24 24 23 21 22 23 25 26 27 28 28 28 28 28 28 27 25 22 18 15 11 9 6 5 3 2 0 1 2 2 3 6 7 8 11 12 13 15 16 17 18 20 22 23 24 25
7 7 5 6 8 9 8 8 7 7 5 5 6 6 7 7 8 6 4 6 6 6 6 6 5 5 8 9 6 7 8 2 16 28 27 25 26 26 26 25 24 23 22 22 24 25 27 28 29 29 29 30 31 32 32 31 29 27 25 22 20 17 13 12 10 7 5 4 3 3 2 2 4 6 8 9 11 12 13 14 14 15 16 17 18 19
7 10 7 4 5 6 6 6 6 5 4 5 5 4 5 5 5 5 7 7 5 4 3 3 3 4 5 6 6 7 4 7 17 21 19 22 24 24 25 23 22 23 23 23 24 26 28 28 29 29 30 32 33 33 32 32 31 30 29 27 25 23 21 19 19 17 14 12 10 8 6 5 4 4 5 7 10 12 12 12 13 12 13 13 14 15
2 2 1 1 2 4 4 6 6 5 4 5 3 3 4 4 5 6 6 5 1 3 3 1 1 4 5 4 10 12 1 9 12 13 14 19 22 22 23 20 20 21 22 23 25 26 28 28 28 29 30 31 32 32 31 31 31 31 30 30 28 27 25 23 23 23 22 20 17 14 11 8 6 5 5 5 7 11 13 14 15 15 14 13 12 12
3 3 3 3 1 2 3 6 5 4 4 4 2 4 5 5 4 4 3 2 4 4 5 5 4 6 5 5 13 12 5 10 8 9 10 16 20 20 19 18 19 19 20 23 25 26 28 28 28 29 29 29 29 28 28 29 30 30 30 29 28 28 27 25 24 24 24 24 22 19 16 12 9 7 5 4 5 8 11 13 15 16 15 15 13 12
1 4 4 4 4 4 5 4 3 2 3 2 0 2 3 2 2 3 3 4 4 3 4 5 6 4 4 5 11 7 8 8 7 8 7 12 17 17 17 17 17 18 19 22 24 26 27 27 27 27 27 26 26 26 26 27 28 28 27 27 26 26 26 26 25 24 24 24 24 23 20 17 14 11 8 7 5 6 10 13 15 16 17 16 15 14
0 3 3 4 4 4 5 3 1 1 2 2 2 1 2 3 4 3 4 3 3 3 5 6 6 3 4 6 5 2 8 6 5 6 7 12 15 15 15 16 16 18 20 21 23 24 25 25 26 25 25 24 24 24 24 24 25 25 25 24 24 25 25 25 24 24 24 24 23 23 22 20 18 16 13 11 8 6 7 10 13 16 17 18 18 16
1 4 2 3 6 5 3 2 2 2 1 1 1 2 3 5 4 3 3 1 2 3 5 7 9 7 3 5 1 4 6 9 7 6 7 11 13 14 14 15 17 19 21 21 22 23 24 24 23 22 23 23 23 22 22 23 23 23 23 22 22 23 23 23 23 23 22 22 22 22 22 22 21 20 18 16 14 12 9 8 9 12 14 16 18 19
3 2 1 4 8 5 3 2 1 3 2 2 0 2 4 4 1 1 0 1 1 3 4 5 3 8 4 3 2 5 6 10 10 9 9 10 12 14 14 14 17 19 21 21 21 21 21 20 20 19 20 20 20 20 21 22 22 21 21 21 21 21 21 21 21 21 21 21 21 21 21 21 21 21 21 20 19 17 16 14 11 11 12 12 14 17
3 5 5 3 4 5 3 1 0 1 2 3 2 1 1 2 1 0 0 2 3 4 3 3 6 2 5 5 3 3 5 5 7 11 13 14 14 15 14 15 16 18 20 20 20 19 18 18 18 18 18 18 18 19 20 21 20 20 20 19 19 20 20 20 19 19 20 20 21 20 20 21 21 20 20 21 21 20 19 18 16 14 12 11 11 13
1 2 5 2 1 6 7 3 2 1 2 5 4 4 3 1 2 3 2 3 3 3 4 1 6 1 4 6 5 3 7 9 14 17 17 17 17 16 14 14 16 18 19 19 19 18 18 17 17 17 18 17 17 18 18 19 19 19 18 18 18 18 17 17 17 18 18 19 20 20 20 20 20 20 21 21 21 20 20 19 18 17 15 14 13 12
2 3 4 4 1 8 9 6 4 2 4 6 4 4 4 2 3 4 3 4 3 2 5 4 3 1 4 1 2 8 11 14 19 20 19 19 17 16 15 14 15 17 18 18 18 17 17 16 16 16 16 15 15 16 16 17 17 16 16 16 16 16 16 16 16 16 17 18 19 19 19 20 20 21 21 21 21 20 20 20 19 19 18 17 15 14
3 4 3 3 3 9 8 7 4 3 1 3 0 2 1 3 4 3 4 4 2 3 5 4 3 3 2 4 6 10 12 14 17 17 18 17 15 15 15 14 14 15 15 16 16 16 15 14 14 14 13 13 14 14 15 16 15 15 15 14 14 15 15 15 15 15 15 16 16 17 18 18 19 20 20 20 20 20 20 20 20 19 19 18 17 16
2 3 2 4 1 5 3 2 2 1 0 1 2 1 3 3 3 1 4 2 0 3 4 3 3 4 1 3 6 8 8 9 10 11 14 14 13 14 14 13 12 12 13 14 13 12 12 11 11 11 12 12 13 14 15 15 14 14 13 12 12 12 12 13 13 13 14 14 15 15 15 16 16 17 19 20 20 20 20 19 19 18 18 19 19 18
2 2 2 3 2 4 1 3 3 1 2 3 2 2 2 3 2 1 2 1 1 5 4 4 6 6 4 2 3 7 7 7 6 7 10 11 12 13 11 11 11 12 11 10 9 9 8 9 9 10 10 11 12 13 13 14 14 13 13 13 13 12 12 12 12 13 14 14 15 15 14 14 14 15 16 17 18 19 19 19 18 18 18 18 18 18
1 2 4 3 2 2 1 3 3 3 2 3 2 0 2 0 1 1 1 2 4 6 4 4 7 7 4 2 1 6 7 7 6 5 6 7 9 10 9 10 10 9 8 7 7 6 6 6 7 8 9 10 11 11 11 12 12 13 13 14 14 14 14 14 14 14 14 15 15 15 15 14 13 13 13 13 15 16 18 19 19 19 19 18 18 19
1 1 2 1 1 1 2 2 2 3 2 3 1 1 1 3 3 2 1 2 4 6 5 5 7 6 2 2 2 4 8 8 7 5 4 5 6 7 8 9 8 8 7 6 5 5 5 5 5 6 7 8 9 10 11 11 12 14 14 15 16 16 16 17 18 18 17 17 16 15 14 14 14 14 14 13 13 14 15 16 18 20 20 21 21 21
1 3 3 1 2 1 0 2 3 2 1 2 1 2 2 1 1 1 2 3 3 5 5 6 7 4 1 3 4 6 8 7 7 6 5 6 8 9 9 9 8 7 6 5 5 4 4 4 5 6 6 7 9 11 12 13 14 15 16 17 17 18 18 19 20 21 21 21 20 19 18 17 16 15 15 15 15 15 15 15 16 17 19 20 22 23
1 2 2 2 2 1 2 1 3 2 3 3 1 2 3 2 2 3 5 3 3 4 4 6 8 4 1 3 3 6 5 6 8 8 7 9 11 10 9 8 7 6 5 5 4 3 2 3 5 6 7 9 11 12 13 13 14 15 16 17 18 19 20 21 21 22 23 23 23 23 23 22 21 19 18 17 17 17 17 17 17 17 17 18 19 21
2 1 1 4 4 5 8 4 2 2 3 3 2 2 2 0 1 4 6 3 1 2 2 4 6 2 2 2 2 5 7 10 13 13 12 13 13 11 9 8 7 6 5 4 3 1 1 2 3 5 7 9 10 11 12 12 13 14 15 17 18 19 20 20 21 21 22 23 23 24 24 25 25 25 24 23 22 21 20 19 19 19 19 18 18 18
2 2 1 4 4 6 9 5 4 4 2 1 0 1 1 1 1 3 4 1 1 3 3 5 5 2 2 2 1 6 10 13 15 15 14 15 14 12 10 9 8 6 5 4 3 2 1 1 2 3 6 8 9 11 11 12 13 14 16 17 18 19 20 20 20 20 20 21 22 22 23 24 25 26 26 27 27 27 26 25 23 22 22 21 21 21
0 0 1 1 3 4 5 2 2 5 4 2 1 2 1 2 2 2 2 2 2 4 4 4 4 2 2 3 4 6 7 8 11 12 13 13 13 12 10 9 8 6 5 4 3 3 2 1 2 4 6 7 9 11 12 13 14 15 16 18 19 19 20 21 21 22 22 22 22 22 23 24 25 26 27 28 29 30 30 31 31 30 29 27 26 25
1 1 2 2 3 3 4 3 1 1 2 1 2 3 3 4 4 3 2 3 4 2 2 4 6 4 3 5 6 6 6 5 8 12 13 12 12 11 9 8 7 5 4 4 2 1 1 2 4 6 8 9 11 12 14 15 16 18 18 19 20 20 21 21 22 22 23 24 25 25 26 27 27 28 29 29 31 31 32 33 34 35 35 34 34 32
0 1 3 5 6 6 7 6 3 1 2 4 5 6 7 6 5 4 4 5 3 3 4 8 9 8 8 10 7 3 5 6 7 11 12 10 9 8 6 5 5 4 4 2 0 2 4 4 6 8 10 11 13 15 17 19 20 22 24 24 25 25 25 26 26 26 27 27 28 29 29 30 31 32 32 33 34 35 36 36 37 38 38 39 39 39
1 2 5 7 8 8 8 9 9 8 7 7 8 10 11 9 7 7 7 6 3 4 8 11 10 9 10 11 10 6 5 7 7 9 11 9 7 6 5 4 3 3 4 4 4 5 6 8 9 11 12 14 15 17 19 21 23 25 26 26 26 26 27 28 29 29 29 30 31 32 32 33 34 34 36 37 38 39 40 40 40 41 41 42 43 43
2 3 5 5 7 9 9 10 10 9 9 9 10 12 13 12 12 11 9 7 5 7 10 10 11 12 11 11 13 9 4 2 1 5 9 8 7 6 5 3 2 3 5 6 8 9 10 11 12 13 15 16 17 19 20 22 24 25 26 25 24 23 24 25 27 28 30 32 34 35 35 36 37 38 39 40 41 42 43 44 44 44 44 44 45 45
2 3 3 3 5 8 9 9 8 7 8 10 12 14 15 16 15 12 9 8 9 10 11 11 14 15 12 8 7 4 3 5 6 7 7 7 7 7 5 3 3 4 5 6 8 9 10 12 13 14 15 16 18 19 20 21 23 25 25 24 22 21 21 22 23 25 28 31 34 36 38 40 42 43 44 45 46 46 47 48 49 49 49 48 47 46
2 1 1 1 2 6 7 6 5 5 7 9 11 13 15 16 13 11 10 9 9 11 13 13 14 13 7 2 2 3 4 5 5 4 5 6 6 5 3 1 3 4 4 5 6 7 8 10 11 12 13 15 17 18 19 20 22 22 20 19 19 19 18 18 19 22 25 28 32 36 39 42 44 46 47 48 49 50 51 52 52 53 54 53 52 51
1 1 0 1 2 6 7 3 2 4 6 8 13 17 18 15 12 11 10 9 9 12 12 12 12 9 3 2 3 5 4 4 3 4 4 4 5 4 1 3 5 5 4 4 5 6 7 7 9 10 12 13 14 14 15 15 15 14 14 15 17 18 20 21 23 25 27 30 33 36 38 40 42 45 47 49 50 51 52 53 54 55 55 55 55 54
1 1 1 1 3 6 7 2 3 1 5 8 12 15 15 14 13 13 12 12 13 12 10 9 8 5 4 5 5 4 3 3 3 4 4 2 1 1 3 5 6 5 4 4 5 6 7 8 10 11 12 14 16 17 17 17 17 18 19 20 22 23 25 26 27 29 32 34 35 36 37 39 40 42 45 48 49 50 52 53 54 55 55 55 55 55
3 2 2 3 3 6 8 2 4 2 8 8 4 5 9 11 12 13 12 12 11 9 6 5 4 4 6 6 5 4 3 3 3 4 4 4 5 7 8 7 6 4 4 4 6 7 8 9 11 12 15 18 20 21 21 22 23 25 26 27 27 27 28 30 32 34 36 37 38 38 39 40 41 43 45 47 48 49 50 51 52 53 54 54 54 55
4 4 3 3 3 5 5 2 3 8 8 3 1 4 7 7 8 9 11 10 10 10 9 5 5 6 6 6 6 5 3 3 5 7 9 9 9 10 10 7 5 4 5 6 7 8 9 11 14 17 20 22 23 23 23 24 25 27 28 29 30 32 33 35 37 39 40 41 41 42 42 42 42 44 45 47 48 48 49 50 50 51 52 52 52 53
5 4 3 3 3 3 3 5 8 8 5 3 3 3 2 2 4 6 8 9 8 8 6 3 4 8 9 9 7 4 4 5 7 10 10 7 5 6 6 5 5 6 7 6 7 10 12 15 18 20 23 24 24 25 26 26 28 29 31 32 33 35 36 38 39 41 42 44 45 45 45 45 45 46 47 48 49 50 50 51 51 53 53 53 53 54
7 5 3 3 4 4 4 7 8 8 9 9 8 4 0 2 4 4 3 5 6 5 3 2 4 6 9 9 6 3 4 5 7 7 4 5 3 1 3 7 8 8 8 8 10 13 16 18 21 22 24 24 25 27 28 29 31 33 34 35 36 37 38 39 41 43 45 46 47 47 48 47 48 49 50 50 50 51 51 52 52 53 54 54 55 56
4 5 5 4 5 4 4 6 6 7 9 7 4 2 3 5 3 3 1 2 4 4 5 5 5 6 8 7 4 2 4 5 4 3 3 4 4 7 9 11 12 10 11 12 15 18 19 21 23 25 26 26 27 29 31 32 34 34 35 36 37 39 41 43 45 46 47 48 48 48 49 49 48 49 50 50 50 50 51 52 52 53 53 54 55 57
0 3 4 4 5 5 5 6 6 7 6 3 2 2 5 7 6 5 2 3 2 3 2 9 9 7 7 4 2 2 3 2 3 6 5 7 11 12 12 13 12 12 13 16 18 21 23 25 27 27 28 29 31 33 33 34 34 35 36 38 40 42 45 46 48 48 48 49 49 48 48 48 48 48 48 49 50 50 51 51 52 53 53 53 54 55
1 1 3 4 7 7 7 7 6 5 3 3 3 3 4 5 8 6 4 5 2 2 6 14 12 8 6 2 0 3 3 3 6 10 12 13 15 16 14 13 13 14 16 18 21 24 26 28 29 29 30 32 33 34 34 34 35 37 39 42 44 45 46 47 48 48 49 49 49 49 48 47 48 48 48 49 50 50 51 51 51 52 52 52 52 52
1 1 3 6 7 9 9 7 6 4 4 5 7 9 8 6 5 1 6 4 6 7 7 11 10 4 1 2 3 5 7 10 11 14 17 16 16 16 14 14 15 16 18 21 24 27 28 29 30 30 32 33 33 34 34 36 38 41 43 44 45 45 46 47 47 48 48 49 49 49 49 49 49 50 50 51 51 52 52 51 49 50 50 49 49 49
2 1 2 5 6 6 7 6 6 5 5 6 8 10 9 4 1 5 4 3 9 13 12 11 9 6 5 7 9 11 14 14 14 15 16 16 16 16 16 17 18 19 21 23 26 29 30 30 31 31 33 33 33 34 36 39 41 43 44 45 45 45 45 46 47 47 48 49 49 49 50 51 51 52 52 52 51 51 52 50 47 47 46 45 45 45
4 3 2 5 5 4 4 6 6 5 3 7 9 4 4 4 3 4 3 5 10 13 13 11 10 9 10 12 13 14 15 15 15 16 16 15 15 16 18 20 20 21 23 25 28 30 31 31 32 33 33 33 34 36 38 41 43 44 44 44 44 45 45 45 46 47 47 48 49 50 51 52 52 52 51 51 49 49 49 48 45 44 43 42 42 43
3 4 3 3 3 4 4 6 4 3 5 9 9 5 7 8 8 7 6 8 12 14 14 12 12 12 12 13 13 14 15 16 17 16 15 16 16 17 19 21 22 23 25 27 29 30 31 32 33 34 33 34 35 38 40 42 44 44 43 43 43 43 44 44 45 46 47 48 49 50 51 51 51 50 49 48 46 46 46 45 43 42 41 40 40 41
5 7 7 7 5 5 5 6 3 3 6 9 10 11 13 14 16 16 13 11 13 14 14 15 14 13 12 12 14 15 17 18 18 17 17 17 18 19 20 21 23 25 27 28 30 31 31 32 33 34 34 35 37 40 41 42 42 43 42 41 41 41 42 43 45 46 47 48 49 50 50 50 49 48 46 44 43 43 43 42 41 41 41 40 40 41
8 10 9 6 6 5 7 10 9 9 15 16 12 13 16 18 22 24 23 21 21 22 22 21 17 14 14 15 16 16 17 18 18 19 20 20 19 20 21 22 24 26 28 29 30 31 32 32 33 34 36 38 39 40 41 40 39 40 39 38 38 39 41 43 44 45 47 48 48 48 48 48 47 45 43 42 41 40 41 40 40 41 40 40 41 42
9 15 11 6 6 7 6 7 8 12 18 20 18 19 20 21 25 27 27 27 26 25 24 21 18 17 17 17 17 17 18 18 18 20 21 21 21 22 22 24 25 27 28 29 30 31 32 33 34 36 38 40 40 40 40 38 36 35 35 36 36 38 40 41 43 45 46 47 48 48 47 46 45 44 43 42 41 41 40 39 39 40 40 41 42 43
8 13 10 6 9 9 5 8 14 18 20 23 23 22 22 24 26 28 28 27 25 21 20 19 19 19 18 18 18 19 19 19 19 21 21 22 23 23 24 26 27 28 29 30 31 32 33 34 35 37 39 40 40 39 38 36 34 32 32 34 35 37 39 41 43 45 46 46 47 46 45 44 44 44 45 44 42 41 40 39 39 39 40 40 40 42
9 8 6 4 5 5 5 9 15 15 17 22 27 27 26 28 30 30 29 27 24 21 20 20 19 19 18 18 19 19 20 20 20 21 22 23 24 25 26 27 28 28 30 30 31 32 33 35 37 38 39 39 38 38 37 34 31 30 31 33 34 36 39 41 42 44 45 45 46 46 45 45 45 45 45 45 43 40 39 38 38 38 39 39 39 39
10 7 7 5 4 5 5 8 11 8 8 17 24 25 24 25 25 25 25 24 24 25 23 21 19 19 19 19 20 20 21 21 21 22 23 24 24 25 26 27 28 29 30 30 31 32 34 36 37 38 38 37 36 35 34 31 29 29 30 32 34 36 38 40 42 44 45 45 45 46 46 45 45 44 44 44 42 41 40 38 37 37 37 39 38 37
14 12 10 7 6 8 11 14 17 14 12 18 24 24 22 21 21 21 22 23 24 24 23 21 20 20 20 21 21 21 22 22 22 23 23 24 24 25 26 27 29 29 29 30 31 33 35 36 37 36 36 35 33 32 31 29 28 28 30 31 33 35 37 39 42 44 45 45 45 45 45 45 44 43 42 42 41 41 41 41 40 38 37 37 37 37
Wind_Direction
170 173 200 196 224 232 240 236 238 250 255 270 277 274 279 278 279 287 287 284 285 285 279 288 296 300 297 289 278 274 272 270 271 273 273 277 294 16 60 74 77 71 65 61 59 58 61 65 69 77 82 85 94 101 112 126 128 128 135 321 316 311 309 282 271 269 261 253 250 250 249 248 249 249 249 249 249 250 250 250 250 252 255 256 256 256
167 195 225 211 224 235 247 257 263 272 276 283 284 279 278 276 279 281 281 281 283 286 284 295 294 293 291 281 273 274 275 271 269 267 265 279 44 59 68 75 74 69 67 68 66 63 65 69 72 75 77 78 79 82 83 86 91 99 114 98 33 5 21 25 308 306 295 268 259 261 262 261 259 258 258 258 258 259 258 258 259 260 262 263 263 263
187 231 235 226 230 240 249 259 267 271 274 279 279 282 281 276 283 275 267 275 291 78 301 304 295 291 285 275 273 275 272 266 265 267 56 74 70 63 68 72 67 65 67 68 64 62 63 67 72 73 73 74 75 77 77 78 78 79 87 94 80 51 51 66 63 339 303 269 244 245 255 263 264 261 265 267 268 268 268 267 268 268 270 271 272 271
206 224 232 223 227 240 249 252 260 263 255 251 256 268 272 270 276 269 276 313 353 342 300 300 295 288 281 273 275 272 262 270 293 78 78 79 76 69 69 69 67 67 66 67 66 65 66 67 70 72 72 72 73 73 72 72 71 72 73 73 69 65 60 59 74 100 333 306 275 262 254 263 267 267 272 277 279 280 281 281 279 278 278 278 278 277
232 258 259 206 218 236 250 258 260 263 261 250 242 247 261 266 267 272 325 345 345 326 302 308 299 270 269 272 282 268 252 335 67 78 74 73 76 74 71 68 69 71 70 72 72 69 70 70 70 70 70 71 70 69 67 67 66 66 67 65 61 58 54 50 52 56 51 40 24 9 350 300 282 278 285 293 295 291 289 289 288 289 289 288 287 285
247 264 254 208 230 244 250 261 257 258 276 268 251 258 280 295 303 317 350 2 354 315 301 24 356 266 285 312 310 291 281 53 66 72 65 62 66 68 69 68 71 75 76 75 73 74 74 73 71 70 69 68 67 66 65 64 64 63 63 62 61 60 57 54 51 49 46 43 40 32 26 14 352 339 333 331 327 318 310 305 302 302 300 298 297 294
253 242 155 113 262 262 261 265 263 257 269 269 266 331 347 6 13 5 6 11 332 267 273 0 347 262 279 295 273 272 299 80 69 68 68 65 63 64 67 69 71 73 78 78 75 75 76 75 73 70 68 65 64 64 63 62 62 60 59 58 58 58 57 57 54 51 48 46 44 40 36 30 17 9 352 337 329 320 315 313 312 314 312 309 306 302
221 181 95 63 236 246 253 258 258 232 233 253 285 1 13 27 9 348 348 282 247 273 281 252 226 256 269 244 248 247 123 95 82 74 74 73 72 73 73 72 73 72 75 79 77 75 74 73 73 71 69 66 64 63 61 61 60 58 56 54 53 52 52 53 52 50 48 46 45 43 41 36 27 17 357 334 313 308 311 313 315 319 319 317 315 312
224 181 170 162 177 214 225 241 271 228 215 228 239 12 16 15 301 279 256 252 265 300 285 227 198 242 272 246 248 224 122 103 99 93 79 76 77 80 80 78 78 76 75 77 79 78 76 72 71 71 70 67 65 62 61 61 60 57 55 52 50 49 48 48 47 46 45 44 44 43 43 40 33 26 12 357 340 318 318 321 324 327 328 327 324 322
333 121 170 170 178 217 213 218 318 304 203 209 230 317 313 255 237 236 240 255 290 281 257 231 192 202 287 269 262 122 117 121 109 103 88 83 82 81 83 83 83 83 80 79 79 80 80 77 73 71 70 68 66 64 63 63 60 56 54 51 50 49 48 46 44 43 42 42 41 40 40 39 36 33 27 17 8 352 331 327 329 329 332 333 331 331
193 91 59 216 223 224 157 132 34 40 138 174 294 326 313 269 229 208 216 201 309 268 252 248 204 184 279 292 335 71 128 145 132 131 117 99 94 91 89 90 92 92 88 84 82 80 80 78 75 71 69 67 66 65 63 61 58 55 52 49 48 47 45 43 42 40 38 39 40 40 39 38 36 33 29 26 21 14 3 352 339 329 330 330 329 329
208 140 220 226 230 219 128 121 42 57 82 89 24 343 336 306 231 122 95 113 237 251 273 303 199 176 214 284 55 68 115 145 147 151 141 122 110 102 97 94 93 95 95 92 87 83 80 77 75 71 68 67 65 62 59 56 54 53 52 48 45 44 41 39 38 37 36 37 38 39 39 38 37 34 30 27 24 19 13 7 358 342 333 328 324 323
206 209 209 194 227 205 156 113 333 50 90 123 158 143 12 315 323 105 222 177 211 238 247 25 51 151 223 275 288 72 77 99 119 130 134 129 121 112 104 98 92 91 93 93 89 84 79 74 71 68 65 63 59 56 55 54 53 52 50 47 44 43 40 37 36 35 35 36 37 38 38 37 37 35 33 30 26 23 17 12 6 356 344 334 325 319
277 256 189 142 310 198 175 154 186 233 173 166 173 163 168 243 288 268 253 245 245 257 248 47 40 9 228 288 298 90 78 67 86 105 117 119 116 109 103 97 91 87 85 84 83 78 73 69 65 63 61 58 55 53 52 51 50 49 48 46 45 45 42 37 36 35 35 35 36 36 35 35 33 31 31 29 27 24 21 17 12 6 358 350 340 329
254 306 183 170 191 173 180 202 192 131 162 193 194 158 165 198 239 256 261 262 269 282 271 286 349 232 187 268 26 87 86 80 86 97 104 105 106 105 101 95 90 86 83 80 78 74 71 68 63 61 60 58 57 55 52 51 49 46 45 44 44 45 44 40 38 37 37 37 35 33 32 30 28 26 25 24 22 20 18 16 14 10 6 1 353 343
221 259 185 141 142 158 179 228 205 98 142 225 38 90 183 213 206 253 270 255 279 307 278 265 261 242 170 110 95 90 86 85 89 95 98 98 102 101 97 92 89 90 90 88 84 79 74 71 67 64 60 59 58 56 54 53 51 50 48 46 44 43 43 41 40 40 40 38 34 31 29 25 22 18 16 15 14 13 12 10 9 7 6 3 358 353
222 252 119 75 57 180 191 279 220 194 170 60 59 151 242 235 155 220 279 271 201 271 260 240 263 283 311 108 107 99 91 89 88 89 92 94 98 95 90 91 93 95 94 89 84 80 75 73 70 66 62 58 55 53 54 55 56 56 56 56 54 51 48 45 43 42 42 41 36 31 27 21 15 10 7 6 6 7 7 6 5 4 2 359 357 356
237 279 226 174 234 232 230 4 329 300 92 114 198 218 271 332 62 146 262 298 241 256 254 245 270 279 269 252 127 120 110 98 89 83 85 85 85 84 86 93 98 97 92 88 84 80 74 68 63 60 59 57 55 53 53 56 56 54 53 55 54 52 52 50 46 42 39 38 35 33 29 23 17 11 5 1 359 358 358 358 359 360 358 356 354 352
131 301 268 217 216 216 94 30 327 326 54 125 183 137 93 322 300 194 192 213 236 256 257 247 264 266 253 275 163 155 138 116 110 97 82 77 81 88 96 104 107 106 104 104 101 94 86 78 69 64 59 56 57 57 57 57 54 50 47 46 45 44 44 43 42 40 39 38 36 32 30 26 21 16 9 2 356 351 348 348 349 350 350 350 348 345
104 215 280 6 49 71 63 80 201 268 355 83 80 326 141 178 215 208 208 225 231 255 264 253 262 264 256 328 333 138 130 125 126 114 102 109 118 124 127 127 131 133 132 130 123 119 112 101 88 76 68 61 56 52 50 48 43 41 37 34 34 33 31 30 29 30 31 34 36 34 31 27 22 17 11 5 358 352 346 342 340 340 341 342 341 339
0 234 249 349 14 31 119 173 180 234 303 84 57 269 235 224 258 298 271 242 226 252 265 257 258 254 254 345 20 85 101 113 126 128 137 150 154 159 158 156 160 159 155 157 149 139 126 108 89 76 67 58 51 44 41 37 34 32 27 24 22 19 18 18 17 17 17 17 18 17 18 18 17 13 9 4 358 354 349 344 340 336 335 335 334 334
332 263 258 292 303 248 225 177 120 142 146 114 91 246 259 287 341 298 266 237 218 239 250 259 261 247 236 316 46 87 90 103 126 139 155 169 173 175 176 178 183 180 171 170 165 151 115 77 63 56 52 49 46 42 37 33 29 24 18 15 12 10 11 10 8 8 7 5 5 3 3 3 3 2 0 358 354 351 348 345 342 338 333 330 328 329
91 93 285 273 267 263 275 293 64 137 161 149 184 210 241 268 167 255 261 259 272 274 287 271 260 229 214 280 69 117 139 149 158 163 171 184 190 191 197 199 194 191 190 192 195 191 92 55 44 39 41 41 38 33 28 23 18 13 8 7 6 6 5 4 3 1 358 358 357 356 355 354 352 352 351 349 348 347 345 343 340 338 335 332 328 325
82 93 239 264 278 289 286 296 37 36 65 118 249 100 105 157 195 239 244 228 247 268 277 265 258 260 239 255 176 150 156 162 172 175 177 186 193 199 206 204 199 197 196 199 206 205 190 138 82 43 33 29 23 18 13 9 6 3 0 359 358 357 357 356 354 352 350 349 349 348 347 346 344 343 342 342 341 340 339 338 336 334 333 332 330 327
208 154 125 235 298 305 289 286 31 20 36 64 332 322 307 259 254 242 222 206 215 228 238 245 257 273 208 209 210 184 169 169 178 182 184 187 193 202 204 198 197 193 181 178 182 184 176 103 55 28 19 18 14 11 8 6 3 359 357 354 351 349 349 347 344 344 342 340 340 340 339 337 336 334 333 333 333 332 332 332 331 331 329 328 326 325
203 222 144 180 246 251 259 263 175 91 57 58 254 269 276 260 251 266 277 255 250 262 296 270 264 269 228 215 214 197 189 194 191 192 195 196 197 200 198 194 192 188 184 181 170 142 27 18 12 9 9 7 5 2 0 357 353 350 348 347 345 342 340 340 338 337 337 336 336 335 335 333 332 330 329 329 328 327 326 326 326 325 325 324 323 322
113 252 197 207 232 242 256 271 277 302 300 279 277 276 271 262 252 258 257 252 273 321 288 258 260 274 275 268 263 207 188 212 214 202 198 197 198 196 195 201 203 207 213 215 278 357 358 355 355 358 357 354 353 350 347 344 342 342 340 339 339 337 336 336 334 333 333 333 333 333 333 332 330 329 328 326 326 325 324 324 323 321 320 319 319 318
138 243 223 218 234 243 253 269 283 291 281 269 275 272 266 261 245 234 241 254 308 310 268 265 275 281 278 283 293 292 254 255 251 213 193 185 182 183 185 199 223 245 265 292 308 317 327 328 330 334 333 335 336 336 336 336 335 335 334 333 332 331 331 331 329 329 329 329 329 329 328 327 327 326 325 324 323 322 321 321 320 318 317 316 315 314
137 243 242 238 249 253 258 262 265 273 277 275 273 271 270 265 251 244 243 238 240 251 260 274 281 277 277 283 290 298 304 293 220 172 169 162 158 167 181 202 246 283 291 298 302 303 307 310 313 316 318 321 323 325 328 329 329 329 327 327 326 324 324 323 321 321 322 323 324 324 324 323 323 322 321 320 320 319 318 317 317 315 314 312 312 311
177 241 241 248 266 264 263 264 263 267 274 272 269 268 268 264 260 262 258 241 239 251 262 271 274 275 280 286 289 320 49 85 101 120 141 153 164 178 191 216 262 288 293 299 305 303 301 301 301 300 301 303 305 309 313 317 320 320 318 316 316 315 316 317 314 313 314 316 318 319 320 320 319 319 318 318 318 318 317 316 316 314 313 312 311 309
242 218 158 99 293 274 266 266 265 259 260 267 270 266 263 264 269 271 265 258 256 260 263 267 270 273 284 352 87 115 110 109 109 120 143 156 158 162 171 248 285 292 301 309 314 316 313 312 311 312 311 308 306 307 310 313 315 316 314 312 312 311 310 307 303 303 304 308 311 314 315 315 315 315 315 315 315 315 315 314 313 312 312 311 311 310
272 255 329 56 267 266 273 288 286 274 280 278 268 261 258 261 265 262 260 261 260 263 267 268 267 264 256 106 134 145 124 113 109 89 90 115 119 115 129 291 293 294 305 317 321 323 321 318 322 327 327 326 325 321 317 314 312 310 307 307 306 303 299 296 294 295 297 302 306 308 310 311 311 310 309 309 310 310 310 309 309 308 308 308 308 307
173 179 290 266 250 267 278 307 79 21 288 268 256 254 253 254 257 259 261 258 254 256 261 260 258 238 182 168 173 153 104 72 64 54 45 50 106 218 254 274 292 298 303 314 315 311 313 317 319 318 316 318 319 316 311 307 306 304 302 302 303 301 297 295 294 296 299 303 307 308 309 309 308 308 307 306 306 306 306 305 304 303 303 303 303 302
197 187 229 245 248 266 272 287 95 202 256 259 234 217 233 242 247 252 256 254 250 251 250 231 201 175 169 163 152 136 100 52 22 353 326 292 265 257 261 273 289 296 296 302 303 304 311 314 313 311 312 312 313 311 308 306 305 304 304 305 306 304 301 301 302 304 307 309 311 311 310 310 308 307 306 305 304 303 302 301 300 300 299 298 297 297
209 204 215 233 238 258 272 280 235 235 242 255 138 192 227 239 239 247 260 262 256 259 262 240 178 162 153 129 114 98 51 356 324 309 303 290 266 255 260 273 285 294 298 299 298 302 307 308 308 311 314 315 316 316 314 311 310 309 309 309 309 309 309 310 310 311 312 312 312 312 310 308 306 304 302 301 299 298 297 296 295 295 294 293 293 292
201 198 205 219 231 249 245 231 240 251 266 281 273 261 262 253 240 253 269 266 252 252 257 231 168 154 134 113 99 73 8 330 315 314 313 302 266 246 253 276 296 300 296 292 291 296 302 306 310 313 315 317 317 316 315 314 313 312 312 311 311 311 311 312 311 311 311 311 310 309 307 305 303 301 300 298 297 295 294 293 292 291 290 289 290 289
202 200 203 218 232 234 229 234 253 287 291 272 264 271 245 173 197 199 247 258 240 230 219 166 150 144 125 105 85 37 358 343 329 335 31 92 103 351 313 304 302 298 290 286 292 296 300 305 309 313 315 315 315 314 314 314 313 312 312 312 312 312 311 311 311 310 310 310 309 308 307 306 304 303 303 302 300 299 298 296 295 294 292 291 290 289
206 209 198 216 242 227 234 254 257 272 273 257 248 272 73 72 88 136 133 270 253 257 238 187 148 125 115 100 78 31 17 9 329 313 88 85 352 337 328 307 292 284 283 289 297 301 303 308 312 315 315 315 314 313 313 313 313 313 312 312 312 312 312 312 312 312 311 311 311 310 309 308 308 307 307 306 304 303 302 300 298 297 295 293 291 290
223 241 199 217 247 230 235 249 241 254 264 214 153 101 82 65 45 45 12 286 290 340 152 146 130 113 115 105 60 79 63 22 275 265 282 312 318 322 318 301 281 272 281 292 300 304 307 312 314 314 314 314 313 313 313 313 313 313 312 313 313 313 314 314 314 314 314 313 313 312 311 312 311 310 309 307 306 304 302 300 299 297 296 293 291 289
143 214 184 212 237 232 234 243 243 255 249 178 160 148 116 73 55 43 326 272 216 87 119 133 129 120 123 130 194 151 164 226 254 277 291 299 306 309 305 291 274 273 283 291 298 303 308 311 313 313 313 313 312 313 313 312 313 314 314 315 316 316 316 316 316 316 315 314 314 314 314 314 312 311 310 308 307 305 303 302 300 299 297 295 293 291
155 189 204 215 228 231 232 243 256 252 227 203 190 171 145 86 59 261 267 247 182 181 169 157 160 161 140 284 251 220 243 260 267 282 291 294 300 303 295 281 276 278 285 291 298 304 308 310 312 312 312 312 312 312 313 313 314 316 316 317 318 318 318 317 317 316 315 315 315 316 315 315 314 314 313 312 310 309 306 305 304 302 300 299 297 294
144 116 235 224 224 229 231 239 257 261 233 200 188 178 160 112 55 234 232 175 180 190 189 190 212 249 276 271 263 260 266 270 272 279 286 291 297 295 284 279 279 280 285 292 299 304 308 310 311 311 311 311 312 312 314 315 316 317 318 319 319 319 319 319 318 317 316 317 317 317 317 317 317 317 315 314 313 312 309 308 307 306 304 302 300 298
167 155 230 223 203 206 228 235 245 268 226 148 132 136 191 188 220 236 195 184 202 202 199 212 240 260 255 250 257 262 264 269 275 280 285 291 293 286 278 277 278 281 288 295 300 304 307 309 309 310 311 310 311 313 315 316 316 318 319 320 321 320 320 318 318 317 317 317 318 318 319 319 319 318 317 316 316 314 312 312 311 310 308 307 305 303
193 175 210 226 182 168 211 232 206 192 210 180 160 194 233 228 244 254 224 206 208 204 203 219 243 254 248 245 253 258 260 268 276 280 286 290 288 280 276 277 279 284 291 296 300 304 306 308 308 309 309 309 312 314 316 317 318 319 320 322 321 320 318 318 317 317 317 318 319 320 320 320 319 319 319 319 319 317 315 315 314 313 311 309 306 304
209 199 216 236 225 182 209 243 209 172 236 227 202 213 233 244 255 260 258 246 230 224 232 247 258 258 251 250 257 260 264 274 282 288 290 289 283 277 276 277 281 286 292 296 300 303 305 307 308 307 308 310 313 316 317 319 319 320 321 321 320 318 318 317 318 318 318 320 321 321 321 321 321 321 321 321 321 319 317 317 315 312 310 307 304 301
223 230 233 239 254 255 254 261 268 275 271 262 246 240 247 252 256 260 263 262 257 257 261 264 264 257 254 260 264 265 269 277 285 289 287 284 280 277 277 280 283 288 292 296 299 302 305 306 306 306 308 311 315 317 318 319 320 321 320 319 318 318 318 318 318 319 320 321 322 323 324 324 323 323 323 323 323 321 318 316 313 310 307 305 302 299
238 243 245 243 253 260 261 254 250 255 259 262 264 263 261 260 260 262 263 263 263 262 259 256 255 255 260 269 272 273 276 279 279 280 279 278 278 278 281 284 286 290 294 297 300 303 305 305 306 308 311 313 316 318 318 319 320 320 319 318 318 318 318 319 319 320 321 323 325 326 327 325 325 325 326 325 324 322 319 316 312 307 304 302 301 299
237 241 241 236 240 243 247 250 248 249 255 262 266 264 261 261 261 261 263 265 266 261 252 250 253 257 263 272 275 276 279 276 272 273 275 275 277 280 283 286 289 292 296 299 302 303 304 305 308 310 312 315 317 317 317 318 320 319 318 318 318 318 319 320 320 321 324 327 328 328 328 327 328 328 327 325 323 321 319 317 314 309 306 304 303 301
250 253 245 232 239 250 255 252 253 259 264 264 262 261 262 263 263 262 264 264 262 259 254 253 255 260 265 271 272 273 274 272 270 272 274 276 280 282 284 288 291 294 297 299 302 303 304 307 309 311 314 316 316 316 316 317 318 319 319 318 319 320 321 321 322 324 327 329 330 330 330 330 330 329 326 324 322 320 319 319 317 312 307 306 304 300
248 254 252 250 251 254 248 239 239 245 256 258 260 262 263 264 265 265 265 261 257 255 255 254 258 262 265 267 268 270 270 270 270 272 276 279 282 284 287 290 292 294 297 299 301 302 305 308 310 312 314 315 315 314 314 315 319 320 319 319 321 321 321 323 325 327 329 331 332 333 333 330 329 328 325 322 321 320 319 321 322 316 308 305 304 298
235 239 243 244 245 249 253 248 240 235 241 254 260 263 264 265 266 264 263 262 258 254 253 255 261 266 267 267 268 269 269 270 272 275 278 281 283 286 289 290 292 294 297 299 301 304 306 308 310 312 314 314 313 311 312 315 319 320 320 321 322 322 323 327 328 328 331 334 334 334 333 330 329 328 325 323 322 320 318 319 321 321 317 314 309 303